Time,TemperatureF,DewpointF,PressureIn,WindDirection,WindDirectionDegrees,WindSpeedMPH,WindSpeedGustMPH,Humidity,HourlyPrecipIn,Conditions,Clouds,dailyrainin,SoftwareType,DateUTC
2013-01-12 00:01:00,52.3,48.0,29.56,South,190,7.0,15.0,86,0.00,,,0.00,weatherlink.com 1.10,2013-01-12 06:01:00,
2013-01-12 00:16:00,52.4,48.0,29.56,SSW,203,12.0,20.0,86,0.00,,,0.00,weatherlink.com 1.10,2013-01-12 06:16:00,
2013-01-12 00:31:00,52.4,48.0,29.56,WSW,240,4.0,16.0,86,0.00,,,0.00,weatherlink.com 1.10,2013-01-12 06:31:00,
2013-01-12 00:46:00,52.2,48.0,29.57,SSE,164,7.0,15.0,86,0.00,,,0.00,weatherlink.com 1.10,2013-01-12 06:46:00,
2013-01-12 01:01:00,52.4,48.0,29.58,SSW,194,9.0,16.0,86,0.00,,,0.00,weatherlink.com 1.10,2013-01-12 07:01:00,
2013-01-12 01:16:00,52.3,48.0,29.57,SW,218,10.0,16.0,86,0.00,,,0.00,weatherlink.com 1.10,2013-01-12 07:16:00,
2013-01-12 01:31:00,52.1,48.0,29.57,SSE,160,5.0,14.0,86,0.00,,,0.00,weatherlink.com 1.10,2013-01-12 07:31:00,
2013-01-12 01:46:00,52.3,48.0,29.57,SSW,195,5.0,17.0,86,0.00,,,0.00,weatherlink.com 1.10,2013-01-12 07:46:00,
2013-01-12 02:01:00,52.0,48.0,29.58,SSW,204,5.0,15.0,86,0.00,,,0.00,weatherlink.com 1.10,2013-01-12 08:01:00,
2013-01-12 02:16:00,51.9,48.0,29.59,SSW,204,2.0,15.0,86,0.00,,,0.00,weatherlink.com 1.10,2013-01-12 08:16:00,
2013-01-12 02:31:00,51.9,48.0,29.59,SSW,193,6.0,14.0,86,0.00,,,0.00,weatherlink.com 1.10,2013-01-12 08:31:00,
2013-01-12 02:46:00,51.7,48.0,29.59,SSW,210,3.0,10.0,86,0.00,,,0.00,weatherlink.com 1.10,2013-01-12 08:46:00,
2013-01-12 03:01:00,51.6,48.0,29.59,SW,215,5.0,15.0,86,0.00,,,0.00,weatherlink.com 1.10,2013-01-12 09:01:00,
2013-01-12 03:32:00,51.3,48.0,29.61,SW,229,6.0,17.0,87,0.00,,,0.00,weatherlink.com 1.10,2013-01-12 09:32:00,
2013-01-12 03:47:00,51.0,47.0,29.61,SSW,205,3.0,13.0,86,0.00,,,0.00,weatherlink.com 1.10,2013-01-12 09:47:00,
2013-01-12 04:02:00,50.7,47.0,29.61,SSW,213,7.0,16.0,86,0.00,,,0.00,weatherlink.com 1.10,2013-01-12 10:02:00,
2013-01-12 04:17:00,50.2,47.0,29.63,SW,214,7.0,15.0,87,0.00,,,0.00,weatherlink.com 1.10,2013-01-12 10:17:00,
2013-01-12 04:32:00,49.5,46.0,29.64,SW,225,7.0,13.0,87,0.00,,,0.00,weatherlink.com 1.10,2013-01-12 10:32:00,
2013-01-12 04:47:00,44.2,40.0,29.67,WSW,255,14.0,35.0,86,0.00,,,0.00,weatherlink.com 1.10,2013-01-12 10:47:00,
2013-01-12 05:02:00,41.4,38.0,29.70,West,261,11.0,26.0,89,0.00,,,0.00,weatherlink.com 1.10,2013-01-12 11:02:00,
2013-01-12 05:17:00,39.1,37.0,29.71,West,269,14.0,23.0,90,0.00,,,0.00,weatherlink.com 1.10,2013-01-12 11:17:00,
2013-01-12 05:32:00,37.7,35.0,29.72,West,259,18.0,21.0,89,0.00,,,0.00,weatherlink.com 1.10,2013-01-12 11:32:00,
2013-01-12 05:47:00,37.0,34.0,29.73,WSW,250,13.0,19.0,90,0.00,,,0.00,weatherlink.com 1.10,2013-01-12 11:47:00,
2013-01-12 06:02:00,36.7,34.0,29.74,West,273,15.0,18.0,90,0.00,,,0.00,weatherlink.com 1.10,2013-01-12 12:02:00,
2013-01-12 06:17:00,35.9,33.0,29.76,West,264,10.0,22.0,90,0.00,,,0.00,weatherlink.com 1.10,2013-01-12 12:17:00,
2013-01-12 06:32:00,35.4,33.0,29.77,West,262,12.0,27.0,89,0.00,,,0.00,weatherlink.com 1.10,2013-01-12 12:32:00,
2013-01-12 06:47:00,34.6,32.0,29.78,West,270,16.0,19.0,91,0.00,,,0.00,weatherlink.com 1.10,2013-01-12 12:47:00,
2013-01-12 07:02:00,33.6,30.0,29.80,West,277,10.0,23.0,88,0.00,,,0.00,weatherlink.com 1.10,2013-01-12 13:02:00,
2013-01-12 07:17:00,32.6,30.0,29.81,WSW,242,20.0,22.0,88,0.00,,,0.00,weatherlink.com 1.10,2013-01-12 13:17:00,
2013-01-12 07:32:00,31.8,28.0,29.83,West,269,8.0,19.0,87,0.00,,,0.00,weatherlink.com 1.10,2013-01-12 13:32:00,
2013-01-12 07:48:00,30.9,28.0,29.83,West,260,10.0,20.0,88,0.00,,,0.00,weatherlink.com 1.10,2013-01-12 13:48:00,
2013-01-12 08:03:00,30.0,26.0,29.84,West,270,15.0,27.0,86,0.00,,,0.00,weatherlink.com 1.10,2013-01-12 14:03:00,
2013-01-12 08:18:00,29.5,26.0,29.85,West,266,8.0,20.0,86,0.00,,,0.00,weatherlink.com 1.10,2013-01-12 14:18:00,
2013-01-12 08:33:00,29.2,26.0,29.86,West,271,8.0,19.0,86,0.00,,,0.00,weatherlink.com 1.10,2013-01-12 14:33:00,
2013-01-12 08:48:00,29.0,25.0,29.87,WSW,240,12.0,19.0,86,0.00,,,0.00,weatherlink.com 1.10,2013-01-12 14:48:00,
2013-01-12 09:03:00,29.0,25.0,29.88,WNW,290,8.0,15.0,86,0.00,,,0.00,weatherlink.com 1.10,2013-01-12 15:03:00,
2013-01-12 09:18:00,28.6,24.0,29.88,WNW,290,6.0,13.0,84,0.00,,,0.00,weatherlink.com 1.10,2013-01-12 15:18:00,
2013-01-12 09:33:00,27.8,23.0,29.90,West,263,14.0,22.0,82,0.00,,,0.00,weatherlink.com 1.10,2013-01-12 15:33:00,
2013-01-12 09:48:00,27.3,22.0,29.89,West,266,14.0,19.0,81,0.00,,,0.00,weatherlink.com 1.10,2013-01-12 15:48:00,
2013-01-12 10:03:00,27.4,22.0,29.91,WSW,239,13.0,22.0,79,0.00,,,0.00,weatherlink.com 1.10,2013-01-12 16:03:00,
2013-01-12 10:18:00,27.8,22.0,29.91,WSW,257,10.0,16.0,80,0.00,,,0.00,weatherlink.com 1.10,2013-01-12 16:18:00,
2013-01-12 10:33:00,28.2,22.0,29.91,WNW,287,7.0,17.0,79,0.00,,,0.00,weatherlink.com 1.10,2013-01-12 16:33:00,
2013-01-12 10:48:00,28.3,22.0,29.92,WNW,291,5.0,16.0,78,0.00,,,0.00,weatherlink.com 1.10,2013-01-12 16:48:00,
2013-01-12 11:03:00,28.2,22.0,29.91,West,269,10.0,16.0,78,0.00,,,0.00,weatherlink.com 1.10,2013-01-12 17:03:00,
2013-01-12 11:18:00,28.6,22.0,29.90,WNW,290,9.0,16.0,77,0.00,,,0.00,weatherlink.com 1.10,2013-01-12 17:18:00,
2013-01-12 11:33:00,28.8,22.0,29.90,West,278,10.0,15.0,75,0.00,,,0.00,weatherlink.com 1.10,2013-01-12 17:33:00,
2013-01-12 11:48:00,28.8,22.0,29.91,SW,215,9.0,15.0,74,0.00,,,0.00,weatherlink.com 1.10,2013-01-12 17:48:00,
2013-01-12 12:03:00,29.0,22.0,29.91,WSW,252,10.0,13.0,74,0.00,,,0.00,weatherlink.com 1.10,2013-01-12 18:03:00,
2013-01-12 12:18:00,29.4,22.0,29.92,West,266,7.0,16.0,75,0.00,,,0.00,weatherlink.com 1.10,2013-01-12 18:18:00,
2013-01-12 12:33:00,28.8,22.0,29.91,WSW,243,8.0,19.0,76,0.00,,,0.00,weatherlink.com 1.10,2013-01-12 18:33:00,
2013-01-12 12:48:00,29.0,22.0,29.93,West,260,8.0,16.0,75,0.00,,,0.00,weatherlink.com 1.10,2013-01-12 18:48:00,
2013-01-12 13:03:00,28.8,22.0,29.93,SW,228,10.0,15.0,77,0.00,,,0.00,weatherlink.com 1.10,2013-01-12 19:03:00,
2013-01-12 13:18:00,28.8,23.0,29.92,WSW,255,5.0,11.0,78,0.00,,,0.00,weatherlink.com 1.10,2013-01-12 19:18:00,
2013-01-12 13:33:00,28.5,22.0,29.92,West,271,8.0,16.0,78,0.00,,,0.00,weatherlink.com 1.10,2013-01-12 19:33:00,
2013-01-12 13:48:00,27.9,22.0,29.93,West,263,9.0,14.0,78,0.00,,,0.00,weatherlink.com 1.10,2013-01-12 19:48:00,
2013-01-12 14:03:00,27.8,22.0,29.93,West,281,4.0,13.0,78,0.00,,,0.00,weatherlink.com 1.10,2013-01-12 20:03:00,
2013-01-12 14:18:00,27.3,21.0,29.94,West,259,7.0,14.0,76,0.00,,,0.00,weatherlink.com 1.10,2013-01-12 20:18:00,
2013-01-12 14:33:00,26.9,21.0,29.94,WSW,250,5.0,13.0,78,0.00,,,0.00,weatherlink.com 1.10,2013-01-12 20:33:00,
2013-01-12 14:48:00,26.6,21.0,29.96,West,259,9.0,14.0,78,0.00,,,0.00,weatherlink.com 1.10,2013-01-12 20:48:00,
2013-01-12 15:03:00,26.3,20.0,29.96,West,269,7.0,14.0,78,0.00,,,0.00,weatherlink.com 1.10,2013-01-12 21:03:00,
2013-01-12 15:18:00,26.3,21.0,29.97,West,271,4.0,10.0,79,0.00,,,0.00,weatherlink.com 1.10,2013-01-12 21:18:00,
2013-01-12 15:33:00,26.3,21.0,29.98,West,266,6.0,12.0,79,0.00,,,0.00,weatherlink.com 1.10,2013-01-12 21:33:00,
2013-01-12 15:48:00,26.3,21.0,29.98,West,262,5.0,13.0,79,0.00,,,0.00,weatherlink.com 1.10,2013-01-12 21:48:00,
2013-01-12 16:03:00,26.1,20.0,29.98,West,259,4.0,11.0,78,0.00,,,0.00,weatherlink.com 1.10,2013-01-12 22:03:00,
2013-01-12 16:18:00,26.0,20.0,29.98,West,263,6.0,13.0,77,0.00,,,0.00,weatherlink.com 1.10,2013-01-12 22:18:00,
2013-01-12 16:34:00,25.6,20.0,29.96,West,263,10.0,14.0,78,0.00,,,0.00,weatherlink.com 1.10,2013-01-12 22:34:00,
2013-01-12 16:48:00,25.7,20.0,29.95,WNW,302,2.0,10.0,79,0.00,,,0.00,weatherlink.com 1.10,2013-01-12 22:48:00,
2013-01-12 17:03:00,25.3,19.0,29.94,WNW,301,6.0,12.0,77,0.00,,,0.00,weatherlink.com 1.10,2013-01-12 23:03:00,
2013-01-12 17:19:00,25.0,19.0,29.92,West,276,0.0,11.0,77,0.00,,,0.00,weatherlink.com 1.10,2013-01-12 23:19:00,
2013-01-12 17:34:00,24.9,19.0,29.91,WNW,294,3.0,12.0,79,0.00,,,0.00,weatherlink.com 1.10,2013-01-12 23:34:00,
2013-01-12 17:49:00,24.6,19.0,29.94,WNW,284,3.0,12.0,78,0.00,,,0.00,weatherlink.com 1.10,2013-01-12 23:49:00,
2013-01-12 18:04:00,24.4,18.0,29.94,NW,319,6.0,11.0,78,0.00,,,0.00,weatherlink.com 1.10,2013-01-13 00:04:00,
2013-01-12 18:19:00,24.4,19.0,29.95,West,259,4.0,8.0,80,0.00,,,0.00,weatherlink.com 1.10,2013-01-13 00:19:00,
2013-01-12 18:34:00,24.2,18.0,29.95,WSW,254,3.0,9.0,78,0.00,,,0.00,weatherlink.com 1.10,2013-01-13 00:34:00,
2013-01-12 18:49:00,24.1,18.0,29.96,West,262,5.0,6.0,78,0.00,,,0.00,weatherlink.com 1.10,2013-01-13 00:49:00,
2013-01-12 19:04:00,24.2,18.0,29.99,NW,324,6.0,11.0,78,0.00,,,0.00,weatherlink.com 1.10,2013-01-13 01:04:00,
2013-01-12 19:19:00,24.1,18.0,29.99,WNW,287,6.0,7.0,77,0.00,,,0.00,weatherlink.com 1.10,2013-01-13 01:19:00,
2013-01-12 19:34:00,24.2,18.0,30.00,WNW,288,2.0,9.0,78,0.00,,,0.00,weatherlink.com 1.10,2013-01-13 01:34:00,
2013-01-12 19:49:00,24.1,18.0,29.98,WSW,258,3.0,7.0,78,0.00,,,0.00,weatherlink.com 1.10,2013-01-13 01:49:00,
2013-01-12 20:04:00,23.9,18.0,30.00,West,262,4.0,9.0,77,0.00,,,0.00,weatherlink.com 1.10,2013-01-13 02:04:00,
2013-01-12 20:19:00,23.9,18.0,30.01,WNW,283,2.0,7.0,77,0.00,,,0.00,weatherlink.com 1.10,2013-01-13 02:19:00,
2013-01-12 20:34:00,23.8,18.0,30.01,West,280,3.0,8.0,78,0.00,,,0.00,weatherlink.com 1.10,2013-01-13 02:34:00,
2013-01-12 20:49:00,23.2,18.0,29.99,West,280,3.0,8.0,81,0.00,,,0.00,weatherlink.com 1.10,2013-01-13 02:49:00,
2013-01-12 21:04:00,22.6,19.0,29.98,West,274,1.0,6.0,85,0.00,,,0.00,weatherlink.com 1.10,2013-01-13 03:04:00,
2013-01-12 21:19:00,22.6,19.0,29.96,NW,309,6.0,7.0,85,0.00,,,0.00,weatherlink.com 1.10,2013-01-13 03:19:00,
2013-01-12 21:34:00,22.3,19.0,29.95,NW,316,1.0,8.0,87,0.00,,,0.00,weatherlink.com 1.10,2013-01-13 03:34:00,
2013-01-12 21:49:00,21.7,20.0,29.95,WNW,300,4.0,11.0,91,0.00,,,0.00,weatherlink.com 1.10,2013-01-13 03:49:00,
2013-01-12 22:04:00,21.4,19.0,29.95,NW,321,2.0,10.0,90,0.00,,,0.00,weatherlink.com 1.10,2013-01-13 04:04:00,
2013-01-12 22:19:00,21.1,18.0,29.94,NW,307,3.0,14.0,87,0.00,,,0.00,weatherlink.com 1.10,2013-01-13 04:19:00,
2013-01-12 22:34:00,21.6,18.0,29.93,North,6,7.0,11.0,84,0.00,,,0.00,weatherlink.com 1.10,2013-01-13 04:34:00,
2013-01-12 22:49:00,21.8,17.0,29.94,North,6,8.0,11.0,83,0.00,,,0.00,weatherlink.com 1.10,2013-01-13 04:49:00,
2013-01-12 23:04:00,21.8,17.0,29.97,WNW,284,1.0,12.0,81,0.00,,,0.00,weatherlink.com 1.10,2013-01-13 05:04:00,
2013-01-12 23:19:00,21.9,17.0,29.98,NW,307,9.0,12.0,81,0.00,,,0.00,weatherlink.com 1.10,2013-01-13 05:19:00,
2013-01-12 23:34:00,21.6,17.0,29.96,NW,324,8.0,12.0,81,0.00,,,0.00,weatherlink.com 1.10,2013-01-13 05:34:00,
2013-01-12 23:49:00,21.5,17.0,29.96,West,276,1.0,10.0,82,0.00,,,0.00,weatherlink.com 1.10,2013-01-13 05:49:00,